TimeCDT,TemperatureF,Dew PointF,Humidity,Sea Level PressureIn,VisibilityMPH,Wind Direction,Wind SpeedMPH,Gust SpeedMPH,PrecipitationIn,Events,Conditions,WindDirDegrees,DateUTC
12:14 AM,50.0,44.6,82,29.78,10.0,SW,3.5,-,N/A,,Overcast,220,2012-10-09 05:14:00
12:33 AM,50.0,44.6,82,29.78,10.0,SSW,5.8,-,N/A,,Overcast,210,2012-10-09 05:33:00
12:53 AM,50.0,44.6,82,29.77,10.0,SSW,5.8,-,N/A,,Light Drizzle,200,2012-10-09 05:53:00
1:14 AM,50.0,44.6,82,29.76,10.0,SSW,4.6,-,N/A,,Overcast,210,2012-10-09 06:14:00
1:33 AM,50.0,44.6,82,29.77,10.0,SW,5.8,-,N/A,,Overcast,220,2012-10-09 06:33:00
1:53 AM,50.0,44.6,82,29.78,10.0,SW,11.5,16.1,N/A,,Drizzle,230,2012-10-09 06:53:00
2:14 AM,50.0,44.6,82,29.79,10.0,WSW,9.2,-,N/A,,Light Drizzle,240,2012-10-09 07:14:00
3:13 AM,50.0,44.6,82,29.78,10.0,WSW,6.9,-,N/A,,Overcast,240,2012-10-09 08:13:00
3:33 AM,50.0,44.6,82,29.77,10.0,WSW,6.9,-,N/A,,Overcast,250,2012-10-09 08:33:00
3:54 AM,50.0,44.6,82,29.77,10.0,WSW,6.9,-,N/A,,Overcast,240,2012-10-09 08:54:00
4:13 AM,50.0,44.6,82,29.77,10.0,WSW,5.8,-,N/A,,Overcast,250,2012-10-09 09:13:00
4:33 AM,50.0,44.6,82,29.77,10.0,SW,5.8,-,N/A,,Overcast,220,2012-10-09 09:33:00
4:54 AM,50.0,44.6,82,29.78,10.0,SW,6.9,-,N/A,,Overcast,230,2012-10-09 09:54:00
5:13 AM,50.0,44.6,82,29.78,10.0,SW,9.2,-,N/A,,Overcast,230,2012-10-09 10:13:00
5:33 AM,50.0,42.8,76,29.79,10.0,WSW,8.1,-,N/A,,Overcast,240,2012-10-09 10:33:00
5:54 AM,50.0,42.8,76,29.79,10.0,SW,5.8,-,N/A,,Overcast,230,2012-10-09 10:54:00
6:13 AM,50.0,42.8,76,29.79,10.0,WSW,8.1,-,N/A,,Overcast,240,2012-10-09 11:13:00
6:33 AM,50.0,42.8,76,29.80,10.0,WSW,11.5,-,N/A,,Overcast,250,2012-10-09 11:33:00
6:54 AM,50.0,42.8,76,29.80,10.0,WSW,12.7,-,N/A,,Light Drizzle,250,2012-10-09 11:54:00
7:13 AM,48.2,42.8,82,29.82,10.0,West,11.5,18.4,N/A,Rain,Rain,270,2012-10-09 12:13:00
7:33 AM,48.2,42.8,82,29.83,10.0,WNW,15.0,19.6,0.01,Rain,Rain,300,2012-10-09 12:33:00
7:53 AM,44.6,37.4,76,29.83,10.0,NW,18.4,25.3,0.01,Rain,Light Rain,320,2012-10-09 12:53:00
8:13 AM,44.6,37.4,76,29.84,10.0,NNW,5.8,-,0.01,Rain,Rain,340,2012-10-09 13:13:00
8:34 AM,42.8,37.4,81,29.84,10.0,NW,9.2,-,0.01,,Drizzle,320,2012-10-09 13:34:00
8:53 AM,42.8,39.2,87,29.85,10.0,NW,10.4,-,0.01,Rain,Light Rain,320,2012-10-09 13:53:00
9:13 AM,42.8,37.4,81,29.85,10.0,WNW,6.9,-,N/A,,Overcast,290,2012-10-09 14:13:00
9:34 AM,42.8,39.2,87,29.86,10.0,West,5.8,-,N/A,,Overcast,280,2012-10-09 14:34:00
9:53 AM,44.6,39.2,81,29.86,10.0,West,4.6,-,N/A,,Overcast,260,2012-10-09 14:53:00
10:13 AM,44.6,37.4,76,29.86,10.0,West,8.1,-,N/A,,Overcast,270,2012-10-09 15:13:00
10:33 AM,46.4,37.4,71,29.87,10.0,WNW,12.7,-,N/A,,Mostly Cloudy,290,2012-10-09 15:33:00
10:53 AM,44.6,33.8,66,29.88,10.0,WNW,18.4,26.5,N/A,,Clear,290,2012-10-09 15:53:00
11:14 AM,44.6,33.8,66,29.88,10.0,West,23.0,26.5,N/A,,Clear,280,2012-10-09 16:14:00
11:53 AM,46.4,32.0,57,29.87,10.0,WNW,18.4,24.2,N/A,,Clear,290,2012-10-09 16:53:00
12:14 PM,46.4,32.0,57,29.87,10.0,WNW,18.4,23.0,N/A,,Clear,300,2012-10-09 17:14:00
12:33 PM,46.4,30.2,53,29.87,10.0,West,18.4,32.2,N/A,,Clear,280,2012-10-09 17:33:00
12:53 PM,50.0,28.4,43,29.87,10.0,West,21.9,31.1,N/A,,Scattered Clouds,270,2012-10-09 17:53:00
1:14 PM,50.0,26.6,40,29.87,10.0,WNW,20.7,33.4,N/A,,Mostly Cloudy,290,2012-10-09 18:14:00
1:33 PM,50.0,26.6,40,29.87,10.0,West,24.2,32.2,N/A,,Mostly Cloudy,270,2012-10-09 18:33:00
1:53 PM,50.0,26.6,40,29.87,10.0,WNW,28.8,34.5,N/A,,Scattered Clouds,290,2012-10-09 18:53:00
2:14 PM,50.0,26.6,40,29.87,10.0,WNW,24.2,34.5,N/A,,Scattered Clouds,290,2012-10-09 19:14:00
2:33 PM,48.2,26.6,43,29.88,10.0,WNW,26.5,35.7,N/A,,Scattered Clouds,300,2012-10-09 19:33:00
2:53 PM,48.2,26.6,43,29.89,10.0,NW,26.5,33.4,N/A,,Mostly Cloudy,310,2012-10-09 19:53:00
3:14 PM,46.4,26.6,46,29.90,10.0,WNW,25.3,31.1,N/A,,Mostly Cloudy,290,2012-10-09 20:14:00
3:33 PM,46.4,26.6,46,29.91,10.0,WNW,23.0,32.2,N/A,,Mostly Cloudy,300,2012-10-09 20:33:00
3:53 PM,46.4,26.6,46,29.91,10.0,WNW,26.5,31.1,N/A,,Overcast,300,2012-10-09 20:53:00
4:14 PM,46.4,26.6,46,29.91,10.0,WNW,21.9,27.6,N/A,,Overcast,300,2012-10-09 21:14:00
4:33 PM,46.4,26.6,46,29.92,10.0,NW,18.4,26.5,N/A,,Overcast,310,2012-10-09 21:33:00
4:53 PM,46.4,26.6,46,29.93,10.0,WNW,20.7,29.9,N/A,,Overcast,300,2012-10-09 21:53:00
5:14 PM,46.4,28.4,50,29.94,10.0,NW,21.9,29.9,N/A,,Overcast,310,2012-10-09 22:14:00
5:33 PM,44.6,28.4,53,29.94,10.0,NNW,25.3,31.1,N/A,,Mostly Cloudy,330,2012-10-09 22:33:00
5:54 PM,44.6,28.4,53,29.96,10.0,NW,26.5,32.2,N/A,,Mostly Cloudy,310,2012-10-09 22:54:00
6:13 PM,44.6,28.4,53,29.97,10.0,NW,20.7,31.1,N/A,,Overcast,320,2012-10-09 23:13:00
6:33 PM,42.8,28.4,57,29.98,10.0,NW,16.1,23.0,N/A,,Overcast,320,2012-10-09 23:33:00
6:53 PM,42.8,28.4,57,29.99,10.0,NW,19.6,26.5,N/A,,Overcast,320,2012-10-09 23:53:00
7:13 PM,42.8,28.4,57,30.00,10.0,NW,17.3,23.0,N/A,,Overcast,320,2012-10-10 00:13:00
7:34 PM,42.8,28.4,57,30.00,10.0,NW,13.8,-,N/A,,Overcast,320,2012-10-10 00:34:00
7:53 PM,41.0,26.6,57,30.01,10.0,NW,11.5,17.3,N/A,,Overcast,310,2012-10-10 00:53:00
8:13 PM,41.0,26.6,57,30.02,10.0,NW,15.0,20.7,N/A,,Overcast,320,2012-10-10 01:13:00
8:33 PM,41.0,26.6,57,30.02,10.0,NW,13.8,-,N/A,,Overcast,310,2012-10-10 01:33:00
8:53 PM,39.2,26.6,61,30.03,10.0,NW,8.1,16.1,N/A,,Scattered Clouds,310,2012-10-10 01:53:00
9:14 PM,39.2,26.6,61,30.04,10.0,NW,8.1,-,N/A,,Mostly Cloudy,310,2012-10-10 02:14:00
9:33 PM,35.6,26.6,70,30.04,10.0,NW,6.9,-,N/A,,Scattered Clouds,310,2012-10-10 02:33:00
9:53 PM,35.6,26.6,70,30.04,10.0,NW,6.9,-,N/A,,Clear,310,2012-10-10 02:53:00
10:14 PM,35.6,26.6,70,30.04,10.0,WNW,5.8,-,N/A,,Scattered Clouds,290,2012-10-10 03:14:00
10:33 PM,32.0,24.8,75,30.04,10.0,WNW,5.8,-,N/A,,Clear,290,2012-10-10 03:33:00
10:54 PM,32.0,26.6,80,30.05,10.0,West,5.8,-,N/A,,Scattered Clouds,260,2012-10-10 03:54:00
11:13 PM,32.0,24.8,75,30.06,10.0,West,6.9,-,N/A,,Scattered Clouds,270,2012-10-10 04:13:00
11:33 PM,33.8,26.6,75,30.06,10.0,West,5.8,-,N/A,,Mostly Cloudy,260,2012-10-10 04:33:00
11:54 PM,33.8,24.8,70,30.06,10.0,West,6.9,-,N/A,,Scattered Clouds,270,2012-10-10 04:54:00